Weather History for Philip, SD

Change the Weather History Date:

Sunday, January 9, 2011

  Actual Average Record
Temperature  
Mean Temperature 8 °F 22 °F  
Max Temperature 14 °F 34 °F 62 °F (1953)
Min Temperature 1 °F 9 °F -29 °F (1977)
Degree Days  
Heating Degree Days 57 43  
Month to date heating degree days 412 394  
Since 1 July heating degree days 2955 3329  
Cooling Degree Days 0 0  
Month to date cooling degree days 0 0  
Year to date cooling degree days 0 0  
Moisture  
Dew Point 7 °F    
Average Humidity 83    
Maximum Humidity 92    
Minimum Humidity 73    
Precipitation  
Precipitation 0.03 in 0.01 in 0.37 in (1993)
Month to date precipitation 0.12 0.09  
Year to date precipitation 0.12 0.09  
Sea Level Pressure  
Sea Level Pressure 30.02 in    
Wind  
Wind Speed 11 mph (NNE)    
Max Wind Speed 17 mph    
Max Gust Speed 21 mph    
Visibility 6 miles    
Events Snow    
T = Trace of Precipitation, MM = Missing Value Source: NWS Daily Summary

Daily Weather History Graph

Daily Weather History Graph

Search for Another Location

Airport:

Trip Planner

Search our weather history database for the weather conditions in past years. The results will help you decide how hot, cold, wet, or windy it might be!

Date:

Astronomy

Jan. 09, 2011 Rise Set
Actual Time 7:20 AM MST 4:26 PM MST
Civil Twilight 6:47 AM MST 4:59 PM MST
Nautical Twilight 6:11 AM MST 5:35 PM MST
Astronomical Twilight 5:37 AM MST 6:10 PM MST
Moon 9:40 AM MST (1/9) 10:12 PM MST (1/9)
Length of Visible Light 10h 11m
Length of Day
9h 06m
Waxing Crescent, 26% of the Moon is Illuminated
Jan 9
Waxing Crescent
Jan 12
First Quarter
Jan 19
Full
Jan 26
Last Quarter
Feb 2
New

Hourly Weather History & Observations

Time (MST) Temp. Windchill Dew Point Humidity Pressure Visibility Wind Dir Wind Speed Gust Speed Precip Events Conditions
12:08 AM 14.0 °F -0.8 °F 10.4 °F 86% 29.80 in 1.0 mi East 13.8 mph - 0.02 in Snow Light Snow
12:38 AM 14.0 °F -0.8 °F 10.4 °F 86% 29.81 in 0.8 mi East 13.8 mph - 0.03 in Snow Light Snow
12:48 AM 14.0 °F -0.2 °F 10.4 °F 86% 29.81 in 1.0 mi East 12.7 mph - 0.04 in Snow Light Snow
12:55 AM 14.0 °F -0.8 °F 10.9 °F 88% 29.91 in 1.2 mi East 13.8 mph - 0.04 in Snow Light Snow
1:05 AM 14.0 °F -0.2 °F 10.4 °F 86% 29.81 in 1.8 mi East 12.7 mph - 0.00 in Snow Light Snow
1:16 AM 14.0 °F -0.2 °F 10.4 °F 86% 29.81 in 2.0 mi East 12.7 mph - 0.00 in Snow Light Snow
1:28 AM 14.0 °F -0.2 °F 10.4 °F 86% 29.81 in 4.0 mi East 12.7 mph - 0.00 in Snow Light Snow
1:50 AM 14.0 °F -0.2 °F 10.4 °F 86% 29.83 in 2.5 mi East 12.7 mph - 0.00 in Snow Light Snow
1:55 AM 14.0 °F -0.2 °F 10.9 °F 88% 29.93 in 1.5 mi East 12.7 mph - 0.00 in Snow Light Snow
2:07 AM 14.0 °F -0.8 °F 10.4 °F 86% 29.83 in 3.0 mi East 13.8 mph - 0.00 in Snow Light Snow
2:31 AM 14.0 °F 0.5 °F 10.4 °F 86% 29.83 in 10.0 mi East 11.5 mph - 0.00 in   Overcast
2:55 AM 14.0 °F 0.5 °F 10.9 °F 88% 29.94 in 10.0 mi East 11.5 mph - 0.00 in   Overcast
3:55 AM 14.0 °F 0.5 °F 10.0 °F 84% 29.95 in 10.0 mi ENE 11.5 mph - N/A   Overcast
4:55 AM 14.0 °F 0.5 °F 10.0 °F 84% 29.95 in 7.0 mi ENE 11.5 mph - 0.00 in Snow Light Snow
5:22 AM 14.0 °F 1.2 °F 10.4 °F 86% 29.86 in 3.0 mi ENE 10.4 mph - 0.00 in Snow Light Snow
5:55 AM 14.0 °F 2.0 °F 10.0 °F 84% 29.98 in 2.5 mi ENE 9.2 mph - 0.00 in Snow Light Snow
6:09 AM 14.0 °F 2.9 °F 10.4 °F 86% 29.89 in 3.0 mi NE 8.1 mph - 0.00 in Snow Light Snow
6:30 AM 14.0 °F 3.9 °F 10.4 °F 86% 29.90 in 5.0 mi NNE 6.9 mph - 0.00 in Snow Light Snow
6:55 AM 12.9 °F 1.6 °F 10.0 °F 88% 30.01 in 4.0 mi North 8.1 mph - 0.00 in Snow Light Snow
7:41 AM 12.2 °F -1.8 °F 8.6 °F 85% 29.93 in 4.0 mi North 11.5 mph - 0.00 in Snow Light Snow
7:55 AM 12.9 °F -0.2 °F 9.0 °F 84% 30.04 in 5.0 mi NNE 10.4 mph - 0.00 in Snow Light Snow
8:40 AM 12.2 °F -1.8 °F 8.6 °F 85% 29.95 in 2.5 mi North 11.5 mph - 0.00 in Snow Light Snow
8:55 AM 10.9 °F -4.7 °F 6.1 °F 81% 30.06 in 1.8 mi North 13.8 mph - 0.00 in Snow Light Snow
9:10 AM 10.4 °F -6.6 °F 6.8 °F 85% 29.96 in 2.0 mi North 16.1 mph - 0.00 in Snow Light Snow
9:31 AM 10.4 °F -6.6 °F 6.8 °F 85% 29.97 in 3.0 mi North 16.1 mph - 0.00 in Snow Light Snow
9:46 AM 10.4 °F -4.1 °F 6.8 °F 85% 29.99 in 1.8 mi NNW 11.5 mph - 0.00 in Snow Light Snow
9:55 AM 10.9 °F -4.7 °F 6.1 °F 81% 30.10 in 2.0 mi North 13.8 mph - 0.00 in Snow Light Snow
10:10 AM 10.4 °F -7.2 °F 6.8 °F 85% 29.97 in 4.0 mi North 17.3 mph - 0.00 in Snow Light Snow
10:55 AM 10.9 °F -5.9 °F 5.0 °F 77% 30.09 in 10.0 mi North 16.1 mph - 0.00 in   Overcast
11:55 AM 10.9 °F -4.1 °F 5.0 °F 77% 30.12 in 10.0 mi North 12.7 mph - 0.00 in   Overcast
12:17 PM 12.2 °F -2.5 °F 5.0 °F 73% 30.01 in 7.0 mi North 12.7 mph - 0.00 in Snow Light Snow
12:55 PM 12.0 °F -1.3 °F 5.0 °F 73% 30.14 in 7.0 mi NNW 10.4 mph - 0.00 in Snow Light Snow
1:55 PM 12.0 °F -2.0 °F 6.1 °F 77% 30.14 in 9.0 mi NNW 11.5 mph - 0.00 in Snow Light Snow
2:55 PM 10.9 °F -4.7 °F 5.0 °F 77% 30.16 in 10.0 mi NNW 13.8 mph - 0.00 in   Overcast
3:55 PM 10.0 °F -5.2 °F 3.9 °F 76% 30.19 in 10.0 mi NNW 12.7 mph - N/A   Overcast
4:55 PM 9.0 °F -5.9 °F 3.0 °F 77% 30.20 in 10.0 mi NNW 11.5 mph - N/A   Overcast
5:55 PM 5.0 °F -8.1 °F -0.0 °F 80% 30.23 in 10.0 mi NW 8.1 mph - N/A   Overcast
6:55 PM 3.9 °F -9.4 °F -0.9 °F 80% 30.27 in 10.0 mi NW 8.1 mph - N/A   Overcast
7:55 PM 3.0 °F -9.3 °F -2.0 °F 80% 30.29 in 10.0 mi NW 6.9 mph - N/A   Overcast
8:55 PM 1.9 °F -15.5 °F -2.9 °F 80% 30.30 in 10.0 mi NW 12.7 mph - N/A   Mostly Cloudy
9:55 PM 1.9 °F -13.8 °F -2.9 °F 80% 30.32 in 10.0 mi WNW 10.4 mph - N/A   Overcast
10:55 PM 1.9 °F -12.9 °F -2.9 °F 80% 30.34 in 10.0 mi WNW 9.2 mph - N/A   Overcast
11:55 PM 3.0 °F -12.5 °F -2.0 °F 80% 30.34 in 8.0 mi NW 10.4 mph - 0.00 in Snow Light Snow